TimeEST,TemperatureF,Dew PointF,Humidity,Sea Level PressureIn,VisibilityMPH,Wind Direction,Wind SpeedMPH,Gust SpeedMPH,PrecipitationIn,Events,Conditions,WindDirDegrees,DateUTC
12:53 AM,21.0,19.0,92,30.62,7.0,Calm,Calm,-,N/A,,Clear,0,2012-11-19 05:53:00
1:53 AM,19.9,19.0,96,30.62,8.0,Calm,Calm,-,N/A,,Clear,0,2012-11-19 06:53:00
2:53 AM,19.9,18.0,92,30.61,7.0,Calm,Calm,-,N/A,,Clear,0,2012-11-19 07:53:00
3:53 AM,19.0,17.1,92,30.61,9.0,Calm,Calm,-,N/A,,Clear,0,2012-11-19 08:53:00
4:53 AM,19.0,17.1,92,30.60,10.0,Calm,Calm,-,N/A,,Clear,0,2012-11-19 09:53:00
5:53 AM,18.0,16.0,92,30.60,8.0,Calm,Calm,-,N/A,,Clear,0,2012-11-19 10:53:00
6:04 AM,17.6,15.8,93,30.56,9.0,Calm,Calm,-,N/A,,Partly Cloudy,0,2012-11-19 11:04:00
6:53 AM,17.1,15.1,92,30.59,8.0,Calm,Calm,-,N/A,,Clear,0,2012-11-19 11:53:00
7:53 AM,21.9,19.9,92,30.58,7.0,Calm,Calm,-,N/A,,Clear,0,2012-11-19 12:53:00
8:05 AM,23.0,21.2,93,30.54,6.0,Calm,Calm,-,N/A,,Scattered Clouds,0,2012-11-19 13:05:00
8:15 AM,24.8,21.2,86,30.54,7.0,Calm,Calm,-,N/A,,Mostly Cloudy,0,2012-11-19 13:15:00
8:28 AM,24.8,23.0,93,30.54,6.0,Calm,Calm,-,N/A,,Scattered Clouds,0,2012-11-19 13:28:00
8:53 AM,28.0,27.0,96,30.56,5.0,Calm,Calm,-,N/A,,Clear,0,2012-11-19 13:53:00
9:53 AM,33.1,30.0,89,30.55,7.0,Calm,Calm,-,N/A,,Clear,0,2012-11-19 14:53:00
10:53 AM,37.9,30.0,73,30.51,10.0,Calm,Calm,-,N/A,,Clear,0,2012-11-19 15:53:00
11:53 AM,42.1,28.9,60,30.48,8.0,Variable,3.5,-,N/A,,Clear,0,2012-11-19 16:53:00
12:53 PM,44.1,28.0,53,30.45,10.0,Calm,Calm,-,N/A,,Clear,0,2012-11-19 17:53:00
1:53 PM,45.0,27.0,49,30.42,10.0,SSE,3.5,-,N/A,,Clear,150,2012-11-19 18:53:00
2:53 PM,46.0,27.0,47,30.40,10.0,Calm,Calm,-,N/A,,Clear,0,2012-11-19 19:53:00
3:53 PM,46.0,26.1,46,30.39,10.0,Calm,Calm,-,N/A,,Clear,0,2012-11-19 20:53:00
4:53 PM,34.0,26.1,73,30.38,10.0,Calm,Calm,-,N/A,,Clear,0,2012-11-19 21:53:00
5:53 PM,28.0,24.1,85,30.38,10.0,Calm,Calm,-,N/A,,Clear,0,2012-11-19 22:53:00
6:53 PM,28.0,25.0,88,30.38,10.0,Calm,Calm,-,N/A,,Clear,0,2012-11-19 23:53:00
7:53 PM,25.0,23.0,92,30.37,9.0,Calm,Calm,-,N/A,,Clear,0,2012-11-20 00:53:00
8:53 PM,24.1,23.0,96,30.35,9.0,Calm,Calm,-,N/A,,Clear,0,2012-11-20 01:53:00
9:53 PM,24.1,21.0,88,30.33,10.0,Calm,Calm,-,N/A,,Clear,0,2012-11-20 02:53:00
10:53 PM,21.0,19.0,92,30.32,9.0,Calm,Calm,-,N/A,,Clear,0,2012-11-20 03:53:00
11:53 PM,21.9,19.9,92,30.30,8.0,Calm,Calm,-,N/A,,Clear,0,2012-11-20 04:53:00